Regional Weather Roundup
Issued by NWS

Home | Current Version | Previous Version | Graphics & Text | Print | Product List | Glossary On
Versions: 1 2 3 4 5 6 7 8 9 10 11 12 13 14 15 16 17 18 19 20 21 22 23 24 25 26 27 28 29 30 31 32 33 34 35 36 37 38 39 40 41 42 43 44 45 46 47 48 49 50
000
ASUS43 KLSX 250207
RWRMO

WEATHER SUMMARY FOR MISSOURI
NATIONAL WEATHER SERVICE SPRINGFIELD MO
900 PM CDT MON JUL 24 2017

NOTE: "FAIR" INDICATES FEW OR NO CLOUDS BELOW 12,000 FEET WITH NO
       SIGNIFICANT WEATHER AND/OR OBSTRUCTIONS TO VISIBILITY.
       CURRENT SKY AND/OR WEATHER CONDITIONS ARE NOT AVAILABLE FOR
       CHILLICOTHE AND FARMINGTON.

MOZ001>031-035>038-043-044-053-054-250300-
...NORTHERN AND WESTERN MISSOURI...

CITY           SKY/WX    TMP DP  RH WIND       PRES   REMARKS
KANSAS CTY INT PTCLDY    80  68  66 E9        29.98S
KANSAS C DTWN  CLEAR     81  68  64 E7        29.96R
LEE`S SUMMIT   CLEAR     77  70  79 E7        29.99S
ST JOSEPH      CLEAR     79  68  69 SE6       29.98R
CHILLICOTHE      N/A     73  70  90 CALM      30.01R
KIRKSVILLE     CLEAR     75  64  68 E3        30.02R

$$
MOZ066>068-077>081-088>096-101>105-250300-
...SOUTHWEST MISSOURI...

CITY           SKY/WX    TMP DP  RH WIND       PRES   REMARKS
SPRINGFIELD    CLEAR     80  76  87 SE3       29.98R
JOPLIN         MOCLDY    86  74  67 CALM      29.97R HX  94
BRANSON        PTCLDY    84  72  65 CALM      29.99R

$$
MOZ032>034-039>042-045>050-055>058-069>072-250300-
...CENTRAL MISSOURI...

CITY           SKY/WX    TMP DP  RH WIND       PRES   REMARKS
COLUMBIA       CLEAR     75  68  78 NE7       30.00R
JEFFERSON CITY CLEAR     80  68  66 NE6       29.97R
ROLLA          CLEAR     76  67  73 NE6       29.99R
SEDALIA        CLEAR     76  71  85 NE5       30.00R
WHITEMAN AFB   CLEAR     74  74 100 NE6       29.98R
WARRENSBURG    CLEAR     75  66  73 NE3       29.99R
OSAGE BEACH    CLEAR     79  67  66 NE5       29.98R

$$
MOZ051-052-059>065-250300-
...EAST CENTRAL MISSOURI...

CITY           SKY/WX    TMP DP  RH WIND       PRES   REMARKS
ST LOUIS INTL  CLEAR     83  69  62 NE9       30.00R
SPIRIT OF STL  CLEAR     79  66  64 CALM      29.98R
ST CHARLES     CLEAR     78  71  79 NE9       29.99R

$$
MOZ072>076-082>087-097>100-106>115-250300-
...SOUTH CENTRAL AND SOUTHEAST MISSOURI...

CITY           SKY/WX    TMP DP  RH WIND       PRES   REMARKS
CAPE GIRARDEAU PTCLDY    80  75  84 E5        29.95R
FARMINGTON     CLOUDY    82  69  64 NE8       30.00R
POPLAR BLUFF   CLOUDY    84  77  79 S5        29.95R HX  94
WEST PLAINS    PTCLDY    82  75  79 CALM      30.00R

$$



USA.gov is the U.S. government's official web portal to all federal, state and local government web resources and services.